Simultaneous Nadir Overpasses (SNOs) Predictions

Prediction of SNOs between GOES-17 and NOAA-19 Satellite Orbit:

Table of predicted SNOs for the next 14.0 days since TLE Epoch: 3/19/2022
Index Date Time (GOES-17) GOES-17 Lat,Lon NOAA-19 Lat,Lon Distance(km) Time Diff (sec)
1 03/20/2022 16:52:02 0.02,-137.21 0.39,-138.89 190.86 80
2 03/21/2022 16:37:33 0.02,-137.21 -0.27,-136.01 137.92 80
3 03/22/2022 16:25:45 0.02,-137.21 -0.92,-133.12 466.39 80
4 03/24/2022 05:01:04 -0.02,-137.19 -0.86,-140.94 427.71 80
5 03/25/2022 04:49:16 -0.02,-137.18 -0.20,-138.06 99.79 80
6 03/26/2022 04:34:47 -0.02,-137.17 0.47,-135.18 228.11 80
7 03/28/2022 16:57:59 0.02,-137.16 0.68,-140.04 328.84 80
8 03/29/2022 16:43:30 0.02,-137.15 0.02,-137.16 1.24 80
9 03/30/2022 16:34:22 0.02,-137.14 -0.64,-134.27 326.49 80
